TimeCDT,TemperatureF,Dew PointF,Humidity,Sea Level PressureIn,VisibilityMPH,Wind Direction,Wind SpeedMPH,Gust SpeedMPH,PrecipitationIn,Events,Conditions,WindDirDegrees,DateUTC
12:15 AM,44.6,32.0,61,30.10,10.0,West,13.8,20.7,N/A,,Clear,280,2012-10-05 05:15:00
12:35 AM,42.8,32.0,66,30.10,10.0,West,11.5,-,N/A,,Clear,280,2012-10-05 05:35:00
12:55 AM,42.8,32.0,66,30.09,10.0,WNW,11.5,17.3,N/A,,Clear,290,2012-10-05 05:55:00
1:15 AM,42.8,32.0,66,30.10,10.0,West,12.7,17.3,N/A,,Clear,280,2012-10-05 06:15:00
1:35 AM,41.0,32.0,70,30.10,10.0,West,12.7,-,N/A,,Clear,280,2012-10-05 06:35:00
1:55 AM,41.0,32.0,70,30.12,10.0,West,9.2,-,N/A,,Clear,270,2012-10-05 06:55:00
2:15 AM,41.0,32.0,70,30.10,10.0,West,15.0,18.4,N/A,,Clear,280,2012-10-05 07:15:00
2:35 AM,41.0,32.0,70,30.11,10.0,West,18.4,-,N/A,,Clear,280,2012-10-05 07:35:00
2:55 AM,41.0,32.0,70,30.11,10.0,West,15.0,19.6,N/A,,Clear,280,2012-10-05 07:55:00
3:15 AM,41.0,32.0,70,30.12,10.0,West,11.5,-,N/A,,Clear,260,2012-10-05 08:15:00
3:35 AM,39.2,30.2,70,30.12,10.0,West,12.7,20.7,N/A,,Clear,270,2012-10-05 08:35:00
3:55 AM,37.4,30.2,75,30.12,10.0,West,10.4,-,N/A,,Clear,270,2012-10-05 08:55:00
4:15 AM,37.4,30.2,75,30.12,10.0,WSW,9.2,-,N/A,,Clear,250,2012-10-05 09:15:00
4:35 AM,37.4,30.2,75,30.12,10.0,West,9.2,-,N/A,,Clear,260,2012-10-05 09:35:00
4:55 AM,37.4,30.2,75,30.12,10.0,West,11.5,-,N/A,,Clear,260,2012-10-05 09:55:00
5:15 AM,35.6,30.2,81,30.11,10.0,West,9.2,-,N/A,,Clear,270,2012-10-05 10:15:00
5:35 AM,35.6,30.2,81,30.11,10.0,West,10.4,-,N/A,,Clear,270,2012-10-05 10:35:00
5:45 AM,37.4,28.4,70,30.11,10.0,West,11.5,-,N/A,,Clear,270,2012-10-05 10:45:00
6:45 AM,35.6,28.4,75,30.11,10.0,West,8.1,-,N/A,,Clear,280,2012-10-05 11:45:00
7:45 AM,37.4,30.2,75,30.11,10.0,West,11.5,-,N/A,,Clear,280,2012-10-05 12:45:00
8:45 AM,39.2,30.2,70,30.11,10.0,West,16.1,-,N/A,,Clear,270,2012-10-05 13:45:00
9:45 AM,42.8,30.2,61,30.11,10.0,West,16.1,-,N/A,,Clear,280,2012-10-05 14:45:00
10:45 AM,44.6,30.2,57,30.10,10.0,West,15.0,-,N/A,,Clear,270,2012-10-05 15:45:00
11:45 AM,48.2,30.2,50,30.09,10.0,West,11.5,-,N/A,,Mostly Cloudy,270,2012-10-05 16:45:00
12:45 PM,46.4,28.4,50,30.07,10.0,WSW,16.1,-,N/A,,Clear,250,2012-10-05 17:45:00
1:45 PM,48.2,28.4,46,30.04,10.0,SW,10.4,-,N/A,,Clear,230,2012-10-05 18:45:00
2:45 PM,48.2,26.6,43,30.03,10.0,WSW,11.5,-,N/A,,Overcast,250,2012-10-05 19:45:00
3:45 PM,48.2,26.6,43,30.03,10.0,West,12.7,-,N/A,,Scattered Clouds,260,2012-10-05 20:45:00
4:45 PM,46.4,24.8,43,30.02,10.0,West,17.3,-,N/A,,Clear,260,2012-10-05 21:45:00
5:45 PM,44.6,24.8,46,30.04,10.0,West,17.3,-,N/A,,Clear,260,2012-10-05 22:45:00
6:45 PM,42.8,23.0,46,30.04,10.0,West,17.3,-,N/A,,Scattered Clouds,260,2012-10-05 23:45:00
7:45 PM,42.8,24.8,49,30.03,10.0,West,11.5,-,N/A,,Clear,260,2012-10-06 00:45:00
8:45 PM,39.2,24.8,56,30.03,10.0,West,11.5,-,N/A,,Clear,260,2012-10-06 01:45:00
9:15 PM,37.4,24.8,60,30.03,10.0,WSW,11.5,-,N/A,,Clear,250,2012-10-06 02:15:00
9:35 PM,37.4,24.8,60,30.03,10.0,West,10.4,17.3,N/A,,Clear,260,2012-10-06 02:35:00
9:55 PM,39.2,24.8,56,30.03,10.0,West,12.7,17.3,N/A,,Clear,270,2012-10-06 02:55:00
10:35 PM,37.4,24.8,60,30.03,10.0,West,11.5,-,N/A,,Clear,270,2012-10-06 03:35:00
10:55 PM,37.4,24.8,60,30.03,10.0,West,10.4,-,N/A,,Clear,270,2012-10-06 03:55:00
11:15 PM,37.4,26.6,65,30.03,10.0,West,9.2,-,N/A,,Clear,260,2012-10-06 04:15:00
11:35 PM,37.4,26.6,65,30.03,10.0,West,9.2,-,N/A,,Clear,260,2012-10-06 04:35:00
11:55 PM,35.6,26.6,70,30.03,10.0,West,8.1,-,N/A,,Scattered Clouds,260,2012-10-06 04:55:00